Weather History for KLJF - April, 2014

Change the Weather History Date:

Saturday, April 26, 2014

  Actual Average Record
Temperature  
Mean Temperature 45 °F -  
Max Temperature 55 °F 66 °F 89 °F (1962)
Min Temperature 35 °F 40 °F 25 °F (1976)
Degree Days  
Heating Degree Days 20    
Moisture  
Dew Point 35 °F    
Average Humidity 69    
Maximum Humidity 93    
Minimum Humidity 41    
Precipitation  
Precipitation 0.21 in - - ()
Sea Level Pressure  
Sea Level Pressure 29.93 in    
Wind  
Wind Speed 11 mph (East)    
Max Wind Speed 24 mph    
Max Gust Speed 32 mph    
Visibility 10 miles    
Events Rain , Thunderstorm    
Averages and records for this station are not official NWS values.
T = Trace of Precipitation, MM = Missing Value Source: NWS Daily Summary

Daily Weather History Graph

Daily Weather History Graph

Search for Another Location

Airport or City:

Trip Planner

Search our weather history database for the weather conditions in past years. The results will help you decide how hot, cold, wet, or windy it might be!

Date:

Astronomy

Apr. 26, 2014 Rise Set
Actual Time 6:14 AM CDT 8:17 PM CDT
Civil Twilight 5:42 AM CDT 8:49 PM CDT
Nautical Twilight 5:03 AM CDT 9:28 PM CDT
Astronomical Twilight 4:20 AM CDT 10:12 PM CDT
Moon 4:47 AM CDT (4/26) 5:40 PM CDT (4/26)
Length of Visible Light 15h 06m
Length of Day
14h 02m
Waning Crescent, 8% of the Moon is Illuminated
Apr 26
Waning Crescent
Apr 29
New
May 6
First Quarter
May 14
Full
May 21
Last Quarter

Hourly Weather History & Observations

Time (CDT) Temp. Windchill Dew Point Humidity Pressure Visibility Wind Dir Wind Speed Gust Speed Precip Events Conditions
12:13 AM 44.6 °F 40.2 °F 33.8 °F 66% 29.93 in 10.0 mi ENE 8.1 mph - N/A   Clear
12:32 AM 42.8 °F 38.0 °F 33.8 °F 70% 29.93 in 10.0 mi ENE 8.1 mph - N/A   Clear
12:53 AM 42.8 °F 38.0 °F 33.8 °F 70% 29.93 in 10.0 mi ENE 8.1 mph - N/A   Clear
1:13 AM 42.8 °F 39.3 °F 33.8 °F 70% 29.94 in 10.0 mi East 5.8 mph - N/A   Clear
1:32 AM 41.0 °F 36.4 °F 33.8 °F 76% 29.93 in 10.0 mi East 6.9 mph - N/A   Clear
1:53 AM 41.0 °F 37.1 °F 33.8 °F 76% 29.94 in 10.0 mi East 5.8 mph - N/A   Clear
2:13 AM 39.2 °F 35.9 °F 33.8 °F 81% 29.94 in 10.0 mi ENE 4.6 mph - N/A   Clear
2:32 AM 39.2 °F 34.2 °F 33.8 °F 81% 29.93 in 10.0 mi ENE 6.9 mph - N/A   Clear
2:53 AM 39.2 °F 35.0 °F 33.8 °F 81% 29.94 in 10.0 mi East 5.8 mph - N/A   Clear
3:13 AM 39.2 °F 35.9 °F 33.8 °F 81% 29.94 in 10.0 mi ENE 4.6 mph - N/A   Clear
3:32 AM 39.2 °F 33.6 °F 35.6 °F 87% 29.93 in 10.0 mi ENE 8.1 mph - N/A   Clear
3:53 AM 37.4 °F 32.1 °F 33.8 °F 87% 29.93 in 10.0 mi ENE 6.9 mph - N/A   Clear
4:13 AM 37.4 °F 32.8 °F 33.8 °F 87% 29.94 in 10.0 mi ENE 5.8 mph - N/A   Clear
4:32 AM 37.4 °F 32.1 °F 33.8 °F 87% 29.94 in 10.0 mi ENE 6.9 mph - N/A   Clear
4:53 AM 37.4 °F 32.1 °F 33.8 °F 87% 29.95 in 10.0 mi ENE 6.9 mph - N/A   Clear
5:13 AM 37.4 °F 32.8 °F 33.8 °F 87% 29.96 in 10.0 mi East 5.8 mph - N/A   Clear
5:32 AM 35.6 °F 31.7 °F 33.8 °F 93% 29.97 in 10.0 mi East 4.6 mph - N/A   Clear
5:53 AM 35.6 °F 29.9 °F 33.8 °F 93% 29.97 in 10.0 mi East 6.9 mph - N/A   Clear
6:12 AM 35.6 °F 29.2 °F 33.8 °F 93% 29.97 in 10.0 mi East 8.1 mph - N/A   Clear
6:33 AM 35.6 °F 29.9 °F 33.8 °F 93% 29.98 in 10.0 mi East 6.9 mph - N/A   Clear
6:53 AM 35.6 °F 28.0 °F 33.8 °F 93% 29.98 in 10.0 mi East 10.4 mph - N/A   Clear
7:12 AM 37.4 °F 30.8 °F 35.6 °F 93% 29.98 in 10.0 mi East 9.2 mph - N/A   Clear
7:33 AM 39.2 °F 32.0 °F 35.6 °F 87% 29.98 in 10.0 mi East 11.5 mph - N/A   Clear
7:53 AM 39.2 °F 31.6 °F 35.6 °F 87% 29.98 in 10.0 mi East 12.7 mph - N/A   Clear
8:12 AM 41.0 °F 33.1 °F 35.6 °F 81% 29.98 in 10.0 mi East 15.0 mph 20.7 mph N/A   Clear
8:33 AM 41.0 °F 33.1 °F 35.6 °F 81% 29.99 in 10.0 mi East 15.0 mph - N/A   Clear
8:53 AM 42.8 °F 34.8 °F 35.6 °F 76% 29.99 in 10.0 mi East 17.3 mph - N/A   Clear
9:12 AM 42.8 °F 36.6 °F 35.6 °F 76% 30.00 in 10.0 mi ESE 11.5 mph - N/A   Clear
9:33 AM 42.8 °F 35.8 °F 35.6 °F 76% 30.00 in 10.0 mi East 13.8 mph - N/A   Clear
9:53 AM 44.6 °F 37.4 °F 35.6 °F 71% 29.99 in 10.0 mi East 16.1 mph - N/A   Clear
10:12 AM 44.6 °F 37.8 °F 35.6 °F 71% 29.99 in 10.0 mi East 15.0 mph - N/A   Clear
10:33 AM 44.6 °F 37.4 °F 35.6 °F 71% 29.99 in 10.0 mi East 16.1 mph - N/A   Clear
10:53 AM 46.4 °F 39.2 °F 33.8 °F 62% 29.99 in 10.0 mi East 18.4 mph 21.9 mph N/A   Clear
11:12 AM 46.4 °F 40.1 °F 33.8 °F 62% 29.99 in 10.0 mi East 15.0 mph - N/A   Clear
11:33 AM 46.4 °F 39.8 °F 33.8 °F 62% 29.98 in 10.0 mi East 16.1 mph - N/A   Clear
11:53 AM 48.2 °F - 33.8 °F 58% 29.97 in 10.0 mi East 18.4 mph 24.2 mph N/A   Clear
12:12 PM 48.2 °F - 32.0 °F 54% 29.96 in 10.0 mi East 18.4 mph 23.0 mph N/A   Clear
12:33 PM 51.8 °F - 32.0 °F 47% 29.96 in 10.0 mi East 17.3 mph 25.3 mph N/A   Clear
1:13 PM 48.2 °F - 30.2 °F 50% 29.95 in 10.0 mi ESE 18.4 mph 24.2 mph N/A   Clear
1:33 PM 50.0 °F - 32.0 °F 50% 29.95 in 10.0 mi East 17.3 mph - N/A   Clear
1:52 PM 51.8 °F - 30.2 °F 44% 29.93 in 10.0 mi East 18.4 mph 26.5 mph N/A   Clear
2:13 PM 51.8 °F - 30.2 °F 44% 29.92 in 10.0 mi East 20.7 mph 24.2 mph N/A   Clear
2:32 PM 51.8 °F - 30.2 °F 44% 29.91 in 10.0 mi East 20.7 mph 26.5 mph N/A   Clear
2:53 PM 51.8 °F - 30.2 °F 44% 29.90 in 10.0 mi East 18.4 mph 25.3 mph N/A   Clear
3:13 PM 53.6 °F - 30.2 °F 41% 29.88 in 10.0 mi East 18.4 mph 25.3 mph N/A   Clear
3:32 PM 53.6 °F - 30.2 °F 41% 29.88 in 10.0 mi East 21.9 mph 28.8 mph N/A   Clear
3:53 PM 53.6 °F - 32.0 °F 44% 29.87 in 10.0 mi East 21.9 mph 27.6 mph N/A   Clear
4:13 PM 55.4 °F - 33.8 °F 44% 29.87 in 10.0 mi East 18.4 mph 26.5 mph N/A   Clear
4:32 PM 55.4 °F - 32.0 °F 41% 29.87 in 10.0 mi East 18.4 mph 27.6 mph N/A   Clear
4:53 PM 55.4 °F - 32.0 °F 41% 29.87 in 10.0 mi East 18.4 mph 28.8 mph N/A   Clear
5:13 PM 53.6 °F - 32.0 °F 44% 29.88 in 10.0 mi East 18.4 mph - N/A   Clear
5:32 PM 53.6 °F - 32.0 °F 44% 29.86 in 10.0 mi East 17.3 mph 25.3 mph N/A   Clear
5:53 PM 53.6 °F - 30.2 °F 41% 29.89 in 10.0 mi East 19.6 mph 24.2 mph N/A   Clear
6:13 PM 51.8 °F - 32.0 °F 47% 29.88 in 10.0 mi East 15.0 mph - N/A   Clear
6:32 PM 53.6 °F - 32.0 °F 44% 29.86 in 10.0 mi East 15.0 mph 23.0 mph N/A   Scattered Clouds
6:53 PM 51.8 °F - 32.0 °F 47% 29.85 in 10.0 mi East 12.7 mph 20.7 mph N/A Rain , Thunderstorm Light Thunderstorms and Rain
7:13 PM 51.8 °F - 35.6 °F 54% 29.90 in 10.0 mi SE 8.1 mph - N/A Thunderstorm Overcast
7:32 PM 51.8 °F - 35.6 °F 54% 29.90 in 10.0 mi East 6.9 mph - N/A Rain Light Rain
7:53 PM 48.2 °F - 37.4 °F 66% 29.86 in 7.0 mi East 16.1 mph - 0.04 in Rain Rain
8:13 PM 46.4 °F 40.7 °F 39.2 °F 76% 29.89 in 10.0 mi East 12.7 mph - 0.09 in Rain Light Rain
8:32 PM 46.4 °F 41.1 °F 42.8 °F 87% 29.89 in 10.0 mi East 11.5 mph - 0.17 in Rain Light Rain
8:53 PM 46.4 °F 40.1 °F 42.8 °F 87% 29.88 in 10.0 mi East 15.0 mph - N/A Rain Light Rain
9:13 PM 46.4 °F 39.8 °F 42.8 °F 87% 29.88 in 10.0 mi East 16.1 mph 21.9 mph N/A   Light Drizzle
9:32 PM 46.4 °F 39.2 °F 41.0 °F 81% 29.89 in 10.0 mi East 18.4 mph - N/A   Overcast
9:53 PM 46.4 °F 38.7 °F 41.0 °F 81% 29.88 in 10.0 mi East 20.7 mph 25.3 mph N/A   Overcast
10:13 PM 46.4 °F 38.7 °F 41.0 °F 81% 29.87 in 10.0 mi East 20.7 mph 28.8 mph N/A   Overcast
10:32 PM 46.4 °F 38.5 °F 41.0 °F 81% 29.87 in 10.0 mi East 21.9 mph 26.5 mph N/A   Overcast
10:53 PM 46.4 °F 38.1 °F 41.0 °F 81% 29.87 in 10.0 mi East 24.2 mph 32.2 mph N/A   Overcast
11:13 PM 46.4 °F 39.0 °F 41.0 °F 81% 29.87 in 10.0 mi East 19.6 mph 28.8 mph N/A   Overcast
11:32 PM 46.4 °F 38.5 °F 41.0 °F 81% 29.87 in 10.0 mi East 21.9 mph 29.9 mph N/A   Overcast
11:53 PM 46.4 °F 38.7 °F 41.0 °F 81% 29.86 in 10.0 mi East 20.7 mph 26.5 mph N/A   Overcast